User: anonymous   Login
Location: Azul
(36.7830°S, 59.8500°W)
Time: 16:36:14
(UTC-03:00)
Language:

BEESAT 3 - Orbit

View from above orbital plane
View from above orbital plane
View from above satellite
View from above satellite

Ground track
Ground track

The orbit data is extracted from the following two-line orbital elements,

1 39134U 13015E   22331.16286137  .00021030  00000-0  62239-3 0  9996
2 39134  64.8592 245.9477 0030620 256.4696 103.3027 15.34463151531764
Epoch (UTC): 27 November 2022 03:54:31
Eccentricity: 0.0030620
inclination: 64.8592°
perigee height: 441 km
apogee height: 483 km
right ascension of ascending node: 245.9477°
argument of perigee: 256.4696°
revolutions per day: 15.34463151
mean anomaly at epoch: 103.3027°
orbit number at epoch: 53176

The dashed part of the orbit path shows where the satellite is in the earth's shadow,  

DLR